Find Starlink 11072

NORAD ID: 58705 Int'l Des: 2024-002 Owner: SPXS Country: US Constellation: starlink operational
LEOCIRCULAR

現在のビュー

3D地球を読み込み中...

Starlink 11072について

説明を読み込み中...

次回通過

Passes for default location (London). Set your location on the main map for personalized predictions.

高度履歴

Loading altitude history...

軌道要素

1 58705U 24002A 26150.41722378 .00002178 00000-0 22841-4 0 9990
2 58705 53.1586 231.1261 0000981 74.0978 286.0148 15.69693046139274
Epoch: May 30, 2026 • Age: 8 hours

現在のステータス

高度 365.5 km
速度 7.70 km/s
衛星直下点 52.76°N, 149.65°E
打ち上げ日 Jan 3, 2024
運用期間 2.4 years
タイプ internet

技術仕様

分類 Payload
質量 960.00 kg
乾燥質量 910.00 kg
総質量 960.00 kg
長さ 0.30 m
直径 4.10 m
スパン 29.00 m
形状 Box + pan
製造者 SPXS
バスタイプ Starlink V2MD
フェーズステータス In Orbit
所有者/国 SPXS/US

Most Searched